Hourly Data Report for May 20, 2018

DRYDEN REGIONAL
ONTARIO
Current Station Operator: NAVCAN

49°49'39.000" N
92°44'39.000" W
412.70 m
6032125
71527
YHD

Download Data

Hourly Data (May 2018)
Hourly Data Report for May 20, 2018
TIME
LST
Temp Definition
°C
Dew Point Definition
°C
Rel Hum Definition
%
Precip. Amount Definition
mm

Wind Dir Definition
10's deg

Wind Spd Definition
km/h
Visibility Definition
km
Stn Press Definition
kPa
Hmdx Definition


Wind Chill Definition


Weather Definition


00:00 7.1 1.8 69 0.0 23 9 16.1 97.25     LegendNANA
01:00 6.8 1.4 68 0.0 24 11 16.1 97.30     LegendNANA
02:00 6.3 1.6 72 0.0 22 13 16.1 97.27     LegendNANA
03:00 6.0 1.4 72 0.0 24 13 16.1 97.28     LegendNANA
04:00 5.2 1.3 76 0.0 23 17 16.1 97.28     LegendNANA
05:00 5.4 1.7 77 0.0 24 11 16.1 97.31     LegendNANA
06:00 7.5 2.3 69 0.0 24 13 16.1 97.34     LegendNANA
07:00 10.6 2.1 55 0.0 26 18 16.1 97.32     LegendNANA
08:00 14.0 2.0 44 0.0 26 22 16.1 97.33     LegendNANA
09:00 17.0 0.1 32 0.0 27 22 16.1 97.32     LegendNANA
10:00 18.5 -1.7 25 0.0 28 21 16.1 97.32     LegendNANA
11:00 20.2 -1.3 23 0.0 26 26 16.1 97.29     LegendNANA
12:00 21.1 -1.4 22 0.0 24 24 16.1 97.27     LegendNANA
13:00 21.6 -0.7 22 0.0 26 18 16.1 97.24     LegendNANA
14:00 22.9 -0.4 21 0.0 22 28 16.1 97.19     LegendNANA
15:00 22.8 -1.7 19 0.0 24 28 16.1 97.17     LegendNANA
16:00 22.8 -1.6 19 0.0 24 30 16.1 97.15     LegendNANA
17:00 22.5 -0.8 21 0.0 24 24 16.1 97.13     LegendNANA
18:00 22.0 -1.6 20 0.0 25 22 16.1 97.11     LegendNANA
19:00 20.7 -1.0 23 0.0 24 15 16.1 97.08     LegendNANA
20:00 17.9 -0.3 29 0.0 22 11 16.1 97.08     LegendNANA
21:00 16.3 0.1 33 0.0 22 13 16.1 97.09     LegendNANA
22:00 15.2 -0.6 34 0.0 22 13 16.1 97.09     LegendNANA
23:00 13.9 -1.2 35 0.0 22 13 16.1 97.10     LegendNANA

Notes on Data Quality.

Legend

  • E = Estimated
  • M = Missing
  • NA = Not Available*
  • [empty] = Indicates an unobserved value
Date modified: